JST400 YSSY-YBCG

Flight info

Callsign JST400
Flight time 1h 2m
Altitude 37000
Route TESAT H252 OLSEM Y193 BANDA Y43 GREAV DCT GOMOL
Aircraft A320/M-SDE3FGHIRWY/LB1

Departure

Time 2026-04-21 08:53
Airport Sydney Kingsford Smith International Airport (YSSY)

Arrival

Time 2026-04-21 09:55
Airport Gold Coast Airport (YBCG)
Time Latitude Longitude Altitude Speed Heading
2026-04-21 08:22 -33.93524 151.17766 30 ft 0 kts 279°
2026-04-21 08:32 -33.93524 151.17767 30 ft 0 kts 279°
2026-04-21 08:40 -33.93527 151.17786 30 ft 4 kts 280°
2026-04-21 08:40 -33.93531 151.17818 30 ft 4 kts 265°
2026-04-21 08:41 -33.93524 151.17839 30 ft 3 kts 190°
2026-04-21 08:41 -33.93541 151.17835 27 ft 4 kts 190°
2026-04-21 08:41 -33.93567 151.17830 30 ft 4 kts 190°
2026-04-21 08:41 -33.93594 151.17824 30 ft 4 kts 190°
2026-04-21 08:42 -33.93604 151.17822 29 ft 3 kts 190°
2026-04-21 08:45 -33.93612 151.17820 30 ft 4 kts 190°
2026-04-21 08:45 -33.93666 151.17808 30 ft 10 kts 195°
2026-04-21 08:45 -33.93715 151.17792 30 ft 12 kts 194°
2026-04-21 08:45 -33.93804 151.17767 30 ft 14 kts 191°
2026-04-21 08:46 -33.93909 151.17782 29 ft 16 kts 167°
2026-04-21 08:46 -33.94029 151.17813 29 ft 19 kts 167°
2026-04-21 08:46 -33.94160 151.17847 30 ft 20 kts 168°
2026-04-21 08:46 -33.94297 151.17882 30 ft 21 kts 167°
2026-04-21 08:47 -33.94437 151.17911 30 ft 17 kts 193°
2026-04-21 08:47 -33.94557 151.17891 30 ft 18 kts 168°
2026-04-21 08:47 -33.94730 151.17937 30 ft 20 kts 167°
2026-04-21 08:47 -33.94824 151.17960 30 ft 21 kts 168°
2026-04-21 08:48 -33.94973 151.17999 30 ft 22 kts 167°
2026-04-21 08:48 -33.95090 151.18050 30 ft 17 kts 121°
2026-04-21 08:48 -33.95083 151.18196 30 ft 19 kts 78°
2026-04-21 08:48 -33.95053 151.18362 30 ft 22 kts 78°
2026-04-21 08:49 -33.95020 151.18549 30 ft 24 kts 77°
2026-04-21 08:49 -33.94990 151.18709 29 ft 10 kts 77°
2026-04-21 08:49 -33.94989 151.18713 28 ft 0 kts 77°
2026-04-21 08:50 -33.94987 151.18723 28 ft 5 kts 77°
2026-04-21 08:51 -33.94972 151.18806 25 ft 8 kts 77°
2026-04-21 08:51 -33.95006 151.18839 26 ft 8 kts 166°
2026-04-21 08:51 -33.95031 151.18846 24 ft 0 kts 168°
2026-04-21 08:52 -33.95032 151.18846 24 ft 2 kts 168°
2026-04-21 08:52 -33.95205 151.18891 23 ft 61 kts 167°
2026-04-21 08:52 -33.95816 151.19050 28 ft 117 kts 168°
2026-04-21 08:52 -33.96757 151.19291 124 ft 151 kts 168°
2026-04-21 08:53 -33.97757 151.19593 801 ft 148 kts 156°
2026-04-21 08:53 -33.98566 151.20366 1475 ft 152 kts 130°
2026-04-21 08:53 -33.99158 151.21465 1998 ft 166 kts 127°
2026-04-21 08:53 -33.99840 151.22730 2396 ft 189 kts 127°
2026-04-21 08:54 -34.00609 151.24140 2848 ft 213 kts 129°
2026-04-21 08:54 -34.01688 151.25419 3353 ft 232 kts 142°
2026-04-21 08:54 -34.02972 151.26687 4091 ft 243 kts 142°
2026-04-21 08:54 -34.04314 151.27996 5069 ft 246 kts 143°
2026-04-21 08:55 -34.05661 151.29304 5958 ft 252 kts 143°
2026-04-21 08:55 -34.07043 151.30648 6827 ft 258 kts 143°
2026-04-21 08:55 -34.08453 151.32025 7639 ft 263 kts 143°
2026-04-21 08:55 -34.09884 151.33421 8497 ft 267 kts 142°
2026-04-21 08:56 -34.11211 151.34960 9319 ft 273 kts 126°
2026-04-21 08:56 -34.11899 151.37150 10170 ft 284 kts 98°
2026-04-21 08:56 -34.11615 151.39575 10670 ft 308 kts 69°
2026-04-21 08:56 -34.10379 151.41713 11268 ft 321 kts 53°
2026-04-21 08:57 -34.08878 151.43744 11977 ft 327 kts 51°
2026-04-21 08:57 -34.07232 151.45662 12691 ft 334 kts 40°
2026-04-21 08:57 -34.05216 151.47120 13323 ft 346 kts 27°
2026-04-21 08:57 -34.02866 151.48093 13556 ft 367 kts 16°
2026-04-21 08:58 -34.00371 151.48890 14114 ft 375 kts 16°
2026-04-21 08:58 -33.97801 151.49724 14712 ft 379 kts 16°
2026-04-21 08:58 -33.95277 151.50547 15307 ft 383 kts 16°
2026-04-21 08:58 -33.92698 151.51391 15905 ft 386 kts 16°
2026-04-21 08:59 -33.90099 151.52244 16514 ft 389 kts 16°
2026-04-21 08:59 -33.87438 151.53118 17124 ft 393 kts 16°
2026-04-21 08:59 -33.84790 151.53987 17718 ft 396 kts 15°
2026-04-21 08:59 -33.82152 151.54853 18299 ft 400 kts 15°
2026-04-21 09:00 -33.79457 151.55739 18857 ft 403 kts 15°
2026-04-21 09:00 -33.76736 151.56630 19368 ft 407 kts 15°
2026-04-21 09:00 -33.73989 151.57525 19880 ft 411 kts 15°
2026-04-21 09:00 -33.71213 151.58429 20400 ft 415 kts 15°
2026-04-21 09:01 -33.68417 151.59337 20904 ft 419 kts 15°
2026-04-21 09:01 -33.65618 151.60376 21379 ft 422 kts 22°
2026-04-21 09:01 -33.62979 151.61935 21839 ft 425 kts 33°
2026-04-21 09:01 -33.60496 151.63875 22320 ft 428 kts 35°
2026-04-21 09:02 -33.57999 151.65850 22771 ft 432 kts 35°
2026-04-21 09:02 -33.55476 151.67837 23222 ft 436 kts 35°
2026-04-21 09:02 -33.52929 151.69834 23666 ft 439 kts 35°
2026-04-21 09:03 -33.47443 151.73178 24448 ft 448 kts 18°
2026-04-21 09:03 -33.44431 151.74181 24830 ft 451 kts 15°
2026-04-21 09:03 -33.41395 151.75161 25220 ft 454 kts 15°
2026-04-21 09:03 -33.38337 151.76151 25603 ft 456 kts 15°
2026-04-21 09:04 -33.35261 151.77148 25987 ft 459 kts 15°
2026-04-21 09:04 -33.32169 151.78149 26364 ft 462 kts 15°
2026-04-21 09:04 -33.29057 151.79154 26750 ft 465 kts 15°
2026-04-21 09:04 -33.25926 151.80166 27112 ft 467 kts 14°
2026-04-21 09:05 -33.22779 151.81180 27473 ft 470 kts 14°
2026-04-21 09:05 -33.19612 151.82201 27833 ft 473 kts 14°
2026-04-21 09:05 -33.16425 151.83229 28200 ft 475 kts 14°
2026-04-21 09:05 -33.13227 151.84257 28568 ft 478 kts 14°
2026-04-21 09:06 -33.10005 151.85294 28933 ft 481 kts 14°
2026-04-21 09:06 -33.06757 151.86338 29309 ft 484 kts 14°
2026-04-21 09:06 -33.03503 151.87384 29668 ft 486 kts 14°
2026-04-21 09:06 -33.00226 151.88436 30020 ft 489 kts 14°
2026-04-21 09:07 -32.96932 151.89493 30363 ft 492 kts 14°
2026-04-21 09:07 -32.93618 151.90556 30661 ft 494 kts 14°
2026-04-21 09:07 -32.90286 151.91620 30966 ft 496 kts 14°
2026-04-21 09:07 -32.86948 151.92684 31347 ft 496 kts 14°
2026-04-21 09:08 -32.83618 151.93746 31812 ft 495 kts 14°
2026-04-21 09:08 -32.80292 151.94807 32241 ft 495 kts 14°
2026-04-21 09:08 -32.76965 151.95865 32664 ft 494 kts 14°
2026-04-21 09:08 -32.73646 151.96922 33104 ft 494 kts 14°
2026-04-21 09:09 -32.70333 151.97977 33541 ft 493 kts 14°
2026-04-21 09:09 -32.67020 151.99031 33983 ft 492 kts 14°
2026-04-21 09:09 -32.63715 152.00084 34403 ft 492 kts 14°
2026-04-21 09:09 -32.60417 152.01131 34780 ft 491 kts 14°
2026-04-21 09:10 -32.57112 152.02183 35144 ft 490 kts 14°
2026-04-21 09:10 -32.53817 152.03231 35494 ft 490 kts 14°
2026-04-21 09:10 -32.50528 152.04276 35837 ft 490 kts 13°
2026-04-21 09:10 -32.47236 152.05323 36178 ft 489 kts 13°
2026-04-21 09:11 -32.43951 152.06368 36512 ft 489 kts 13°
2026-04-21 09:11 -32.40671 152.07406 36842 ft 488 kts 13°
2026-04-21 09:11 -32.37385 152.08443 37158 ft 488 kts 13°
2026-04-21 09:11 -32.34101 152.09473 37301 ft 489 kts 13°
2026-04-21 09:12 -32.27539 152.11536 37320 ft 492 kts 13°
2026-04-21 09:12 -32.20931 152.13633 37319 ft 491 kts 13°
2026-04-21 09:13 -32.14326 152.15710 37325 ft 491 kts 13°
2026-04-21 09:13 -32.07726 152.17780 37315 ft 491 kts 13°
2026-04-21 09:14 -32.01118 152.19856 37322 ft 491 kts 13°
2026-04-21 09:14 -31.94512 152.21928 37323 ft 491 kts 13°
2026-04-21 09:15 -31.87900 152.23988 37326 ft 491 kts 13°
2026-04-21 09:15 -31.81290 152.26050 37330 ft 492 kts 13°
2026-04-21 09:16 -31.74678 152.28114 37321 ft 492 kts 13°
2026-04-21 09:16 -31.68062 152.30177 37326 ft 492 kts 13°
2026-04-21 09:17 -31.61446 152.32225 37330 ft 492 kts 13°
2026-04-21 09:17 -31.54820 152.34285 37323 ft 492 kts 13°
2026-04-21 09:18 -31.48208 152.36346 37327 ft 492 kts 13°
2026-04-21 09:18 -31.41592 152.38388 37330 ft 491 kts 13°
2026-04-21 09:19 -31.34974 152.40427 37330 ft 491 kts 13°
2026-04-21 09:19 -31.28366 152.42470 37311 ft 491 kts 13°
2026-04-21 09:20 -31.21749 152.44508 37310 ft 492 kts 13°
2026-04-21 09:20 -31.15132 152.46547 37311 ft 492 kts 13°
2026-04-21 09:21 -31.08512 152.48584 37302 ft 492 kts 13°
2026-04-21 09:21 -31.01887 152.50611 37298 ft 493 kts 13°
2026-04-21 09:22 -30.95250 152.52644 37314 ft 493 kts 13°
2026-04-21 09:22 -30.88608 152.54672 37315 ft 493 kts 13°
2026-04-21 09:23 -30.81975 152.56705 37308 ft 493 kts 13°
2026-04-21 09:23 -30.75523 152.59400 37311 ft 493 kts 21°
2026-04-21 09:24 -30.69149 152.62361 37307 ft 493 kts 20°
2026-04-21 09:24 -30.62763 152.65302 37299 ft 493 kts 20°
2026-04-21 09:25 -30.56426 152.68231 37294 ft 493 kts 20°
2026-04-21 09:25 -30.50051 152.71169 37299 ft 493 kts 20°
2026-04-21 09:26 -30.43677 152.74104 37298 ft 493 kts 20°
2026-04-21 09:26 -30.37305 152.77049 37295 ft 493 kts 20°
2026-04-21 09:27 -30.30928 152.79990 37296 ft 493 kts 20°
2026-04-21 09:27 -30.25588 152.82442 37291 ft 493 kts 20°
2026-04-21 09:28 -30.19211 152.85359 37308 ft 493 kts 20°
2026-04-21 09:28 -30.12875 152.88258 37286 ft 493 kts 20°
2026-04-21 09:29 -30.06458 152.91197 37278 ft 493 kts 20°
2026-04-21 09:29 -30.00084 152.94113 37278 ft 493 kts 20°
2026-04-21 09:30 -29.93703 152.97026 37270 ft 493 kts 20°
2026-04-21 09:30 -29.87320 152.99930 37273 ft 493 kts 20°
2026-04-21 09:31 -29.80934 153.02831 37271 ft 493 kts 20°
2026-04-21 09:31 -29.74547 153.05727 37124 ft 493 kts 20°
2026-04-21 09:32 -29.71323 153.07188 35969 ft 506 kts 20°
2026-04-21 09:32 -29.68027 153.08683 35107 ft 510 kts 20°
2026-04-21 09:32 -29.64705 153.10191 34311 ft 514 kts 21°
2026-04-21 09:32 -29.61392 153.11696 33706 ft 510 kts 21°
2026-04-21 09:33 -29.58089 153.13193 32996 ft 509 kts 20°
2026-04-21 09:33 -29.54796 153.14681 32294 ft 508 kts 21°
2026-04-21 09:33 -29.51552 153.16148 31711 ft 505 kts 21°
2026-04-21 09:33 -29.48298 153.17617 31149 ft 501 kts 20°
2026-04-21 09:34 -29.45065 153.19073 30580 ft 497 kts 21°
2026-04-21 09:34 -29.41864 153.20515 30007 ft 492 kts 21°
2026-04-21 09:34 -29.38694 153.21943 29390 ft 487 kts 21°
2026-04-21 09:34 -29.35572 153.23354 28444 ft 478 kts 21°
2026-04-21 09:35 -29.32529 153.24728 27847 ft 461 kts 21°
2026-04-21 09:35 -29.29596 153.26048 27313 ft 447 kts 21°
2026-04-21 09:35 -29.26708 153.27347 26794 ft 444 kts 21°
2026-04-21 09:35 -29.23836 153.28635 26277 ft 442 kts 21°
2026-04-21 09:36 -29.20981 153.29912 25796 ft 439 kts 21°
2026-04-21 09:36 -29.18144 153.31183 25311 ft 437 kts 21°
2026-04-21 09:36 -29.15321 153.32448 24833 ft 435 kts 21°
2026-04-21 09:36 -29.12503 153.33711 24351 ft 433 kts 22°
2026-04-21 09:37 -29.09707 153.34963 23866 ft 432 kts 22°
2026-04-21 09:37 -29.06911 153.36214 23318 ft 430 kts 22°
2026-04-21 09:37 -29.04136 153.37457 22813 ft 427 kts 22°
2026-04-21 09:37 -29.01382 153.38692 22307 ft 423 kts 21°
2026-04-21 09:38 -28.98648 153.39916 21786 ft 420 kts 21°
2026-04-21 09:38 -28.95936 153.41127 21266 ft 418 kts 21°
2026-04-21 09:38 -28.93235 153.42332 20740 ft 415 kts 21°
2026-04-21 09:38 -28.90557 153.43526 20303 ft 410 kts 21°
2026-04-21 09:39 -28.87908 153.44708 19809 ft 407 kts 21°
2026-04-21 09:39 -28.85276 153.45881 19280 ft 405 kts 21°
2026-04-21 09:39 -28.82678 153.47039 18888 ft 399 kts 21°
2026-04-21 09:39 -28.80103 153.48184 18380 ft 396 kts 21°
2026-04-21 09:40 -28.77554 153.49317 17747 ft 387 kts 21°
2026-04-21 09:40 -28.75092 153.50410 17202 ft 372 kts 21°
2026-04-21 09:40 -28.72736 153.51459 16758 ft 356 kts 21°
2026-04-21 09:40 -28.70471 153.52470 16329 ft 343 kts 20°
2026-04-21 09:41 -28.68278 153.53444 15908 ft 335 kts 20°
2026-04-21 09:41 -28.66096 153.54414 15492 ft 337 kts 20°
2026-04-21 09:41 -28.63912 153.55383 15068 ft 338 kts 20°
2026-04-21 09:41 -28.61723 153.56352 14648 ft 338 kts 20°
2026-04-21 09:42 -28.59527 153.57325 14228 ft 339 kts 20°
2026-04-21 09:42 -28.57323 153.58301 13766 ft 340 kts 20°
2026-04-21 09:42 -28.55122 153.59275 13329 ft 339 kts 20°
2026-04-21 09:42 -28.52927 153.60247 12905 ft 338 kts 21°
2026-04-21 09:43 -28.50724 153.61175 12484 ft 337 kts 20°
2026-04-21 09:43 -28.48503 153.62033 12048 ft 337 kts 19°
2026-04-21 09:43 -28.46276 153.62852 11621 ft 336 kts 19°
2026-04-21 09:43 -28.44044 153.63663 11196 ft 336 kts 19°
2026-04-21 09:44 -28.41819 153.64478 10775 ft 336 kts 20°
2026-04-21 09:44 -28.39604 153.65296 10444 ft 332 kts 20°
2026-04-21 09:44 -28.37452 153.66088 10239 ft 318 kts 20°
2026-04-21 09:44 -28.35403 153.66831 9762 ft 309 kts 20°
2026-04-21 09:45 -28.33375 153.67564 9554 ft 307 kts 20°
2026-04-21 09:45 -28.31342 153.68302 9179 ft 307 kts 20°
2026-04-21 09:45 -28.29258 153.68842 8776 ft 309 kts
2026-04-21 09:45 -28.27107 153.68754 8409 ft 310 kts 350°
2026-04-21 09:46 -28.25043 153.68072 8038 ft 309 kts 340°
2026-04-21 09:46 -28.23013 153.67250 7628 ft 311 kts 339°
2026-04-21 09:46 -28.20981 153.66434 7322 ft 308 kts 340°
2026-04-21 09:46 -28.18957 153.65628 6980 ft 307 kts 340°
2026-04-21 09:47 -28.16942 153.64827 6657 ft 306 kts 340°
2026-04-21 09:47 -28.14933 153.64024 6300 ft 306 kts 339°
2026-04-21 09:47 -28.12930 153.63219 5963 ft 303 kts 340°
2026-04-21 09:47 -28.10953 153.62426 5346 ft 302 kts 340°
2026-04-21 09:48 -28.08990 153.61637 4929 ft 297 kts 340°
2026-04-21 09:48 -28.07047 153.60858 4567 ft 295 kts 340°
2026-04-21 09:48 -28.05131 153.60052 4220 ft 293 kts 333°
2026-04-21 09:48 -28.03496 153.58726 3876 ft 288 kts 309°
2026-04-21 09:49 -28.02415 153.56858 3520 ft 282 kts 287°
2026-04-21 09:49 -28.02005 153.54778 3215 ft 260 kts 265°
2026-04-21 09:49 -28.02027 153.52827 3126 ft 238 kts 262°
2026-04-21 09:49 -28.02041 153.51027 3021 ft 220 kts 262°
2026-04-21 09:50 -28.02053 153.49346 2920 ft 208 kts 262°
2026-04-21 09:50 -28.02069 153.47724 2817 ft 205 kts 262°
2026-04-21 09:50 -28.02088 153.46120 2717 ft 202 kts 261°
2026-04-21 09:50 -28.02385 153.44678 2596 ft 177 kts 231°
2026-04-21 09:51 -28.03153 153.43740 2516 ft 151 kts 204°
2026-04-21 09:51 -28.04058 153.43341 2447 ft 135 kts 184°
2026-04-21 09:51 -28.04976 153.43386 2354 ft 132 kts 162°
2026-04-21 09:51 -28.05813 153.43821 2218 ft 133 kts 152°
2026-04-21 09:52 -28.06624 153.44336 2055 ft 135 kts 152°
2026-04-21 09:52 -28.07441 153.44854 1880 ft 135 kts 153°
2026-04-21 09:52 -28.08250 153.45368 1712 ft 132 kts 153°
2026-04-21 09:52 -28.09047 153.45874 1528 ft 131 kts 154°
2026-04-21 09:53 -28.09844 153.46380 1354 ft 131 kts 154°
2026-04-21 09:53 -28.10642 153.46886 1198 ft 131 kts 154°
2026-04-21 09:53 -28.11431 153.47388 1016 ft 130 kts 153°
2026-04-21 09:53 -28.12212 153.47896 844 ft 130 kts 153°
2026-04-21 09:54 -28.12998 153.48404 676 ft 130 kts 155°
2026-04-21 09:54 -28.13834 153.48926 501 ft 134 kts 153°
2026-04-21 09:54 -28.14639 153.49448 288 ft 131 kts 155°
2026-04-21 09:54 -28.15447 153.49948 138 ft 133 kts 153°
2026-04-21 09:55 -28.16217 153.50437 35 ft 115 kts 153°
2026-04-21 09:55 -28.16792 153.50798 28 ft 59 kts 151°
2026-04-21 09:55 -28.17010 153.50936 28 ft 32 kts 150°
2026-04-21 09:55 -28.17202 153.51058 27 ft 31 kts 150°
2026-04-21 09:56 -28.17381 153.51170 26 ft 26 kts 150°
2026-04-21 09:56 -28.17459 153.51271 28 ft 15 kts 83°
2026-04-21 09:56 -28.17402 153.51377 26 ft 17 kts 26°
2026-04-21 09:56 -28.17291 153.51329 30 ft 19 kts 330°
2026-04-21 09:57 -28.17169 153.51252 29 ft 21 kts 331°
2026-04-21 09:57 -28.17032 153.51165 30 ft 24 kts 330°
2026-04-21 09:57 -28.16916 153.51091 28 ft 17 kts 333°
2026-04-21 09:57 -28.16860 153.51123 28 ft 8 kts 58°
2026-04-21 09:58 -28.16826 153.51178 30 ft 6 kts 56°
2026-04-21 09:58 -28.16804 153.51222 26 ft 6 kts 62°
2026-04-21 09:58 -28.16788 153.51254 30 ft 0 kts 60°
2026-04-21 09:58 -28.16787 153.51255 30 ft 0 kts 60°